STARLINK-30262 (57535 NORAD) Tracking and Keplerian Element Data

This shows tracking and keplerian element data for the satellite.

Feedback or suggestion? Click here.




ElementValue
Catalog57535
NameSTARLINK-30262
Epoch Orbit406
Epoch Day238.91667824
Epoch Year2023
RAAN1.0559
Inclination42.9994
Eccentricity0.0002117
Argument of Perigee293.8327
Mean Anonmoly106.7898
Mean Motion15.55648475
Decay Rate-0.01641541
L11 57535U 23115Q 23238.91667824 -.01641541 00000+0 -25904-1 0 9992
L22 57535 42.9994 1.0559 0002117 293.8327 106.7898 15.55648475 4068



Live tracking and technical data element details for STARLINK-30262 (NORAD 57535). STARLINK-30262 can be tracked NOW for your location showing map with azimuth and elevation plus other details from your city location.







IsCatalogInMostPopularTable: catalog: 57535, numindb: 6
Update: records affected: 1



GetName: 57535 STARLINK-30262

Hit Count: updated at: Tue, 26 Sep 2023 13:53:14 GMT